Regional Weather Roundup
Issued by NWS

Home | Current Version | Previous Version | Text Only | Print | Product List | Glossary Off
Versions: 1 2 3 4 5 6 7 8 9 10 11 12 13 14 15 16 17 18 19 20 21 22 23 24 25 26 27 28 29 30 31 32 33 34 35 36 37 38 39 40 41 42 43 44 45 46 47 48 49 50

000
ASUS45 KABQ 200701
RWRNM
NEW MEXICO REGIONAL WEATHER ROUNDUP
NATIONAL WEATHER SERVICE ALBUQUERQUE NM
1200 AM MST MON FEB 20 2017

NOTE: "FAIR" MEANS FEW OR NO CLOUDS BELOW 12,000 FEET AGL WITH NO
       SIGNIFICANT WEATHER OR OBSTRUCTIONS TO VISION.

      THIS PRODUCT IS RELEASED AS TWO VERSIONS.  ONE VERSION NEAR
      THE TOP OF THE HOUR CONTAINING PRELIMINARY DATA FROM ALBUQUERQUE
      AND OTHER STATIONS.  A FINAL VERSION WITH ADDITIONAL DATA IS
      ISSUED ABOUT 10 MINUTES AFTER THE HOUR.

NMZ501-503-504-510>518-200800-
NORTHWEST PLATEAU/NORTHCENTRAL MOUNTAINS

CITY           SKY/WX    TMP DP  RH WIND       PRES   REMARKS
FARMINGTON     LGT RAIN  38  35  89 W5        30.00R WCI  34
LOS ALAMOS     MOCLDY    37  27  67 NW5       29.98R WCI  33
SANTA FE       MOCLDY    35  31  85 W9        29.96F WCI  28
TAOS           CLOUDY    34  21  60 SW13      29.95S WCI  25
ANGEL FIRE     CLOUDY    30  24  79 W13       29.92F WCI  20

$$
NMZ402-403-502-505>509-200800-
WESTCENTRAL MOUNTAINS/SOUTHWEST MOUNTAINS

CITY           SKY/WX    TMP DP  RH WIND       PRES   REMARKS
GALLUP         CLOUDY    36  33  89 SW14      30.08R WCI  27
GRANTS         CLOUDY    32  32  97 CALM      30.07R
SILVER CITY    CLOUDY    40  36  88 CALM      30.10R

$$
NMZ407-409-411-412-200800-
SOUTHERN DESERTS

CITY           SKY/WX    TMP DP  RH WIND       PRES   REMARKS
DEMING         MOCLDY    43  38  82 W13       30.09R
LAS CRUCES     FAIR      43  36  76 W14       30.07R
HOLLOMAN AFB   FAIR      43  32  65 NE3       30.05R
ALAMOGORDO     MOCLDY    45  32  61 NE6       30.02S
T OR C         CLOUDY    44  32  62 NW6       30.03S

$$
NMZ519>523-200800-
CENTRAL VALLEYS/CENTRAL HIGHLANDS

CITY           SKY/WX    TMP DP  RH WIND       PRES   REMARKS
ALBUQUERQUE    MOCLDY    42  33  70 SW7       30.01R
DOUBLE EAGLE   CLOUDY    38  32  81 SW8       30.02R WCI  32
MORIARTY ARPT  CLOUDY    39  34  81 SW10      29.98F WCI  32
CLINES CORNERS FAIR      32  29  88 W32G39    29.91F WCI  17
BELEN          CLOUDY    42  32  69 S6        30.02S
SOCORRO        MOCLDY    39  33  76 CALM      30.01F

$$
NMZ524>526-539-540-200800-
SOUTHCENTRAL MOUNTAINS

CITY           SKY/WX    TMP DP  RH WIND       PRES   REMARKS
RUIDOSO        NOT AVBL

$$
NMZ527>531-200800-
NORTHEAST HIGHLANDS/NORTHEAST PLAINS

CITY           SKY/WX    TMP DP  RH WIND       PRES   REMARKS
LAS VEGAS      FAIR      32  23  69 SW12      29.87S WCI  23
RATON          FAIR      33  18  53 CALM      29.81R
CLAYTON        FAIR      39  27  62 W15G22    29.74F WCI  31

$$
NMZ532>537-200800-
EASTCENTRAL PLAINS

CITY           SKY/WX    TMP DP  RH WIND       PRES   REMARKS
TUCUMCARI      FAIR      46  33  60 W21       29.79F
CANNON AFB     FAIR      42  30  64 W8        29.87R
CLOVIS AIRPORT FAIR      43  28  56 W16       29.86R

$$
NMZ028-029-538-200800-
SOUTHEAST PLAINS

CITY           SKY/WX    TMP DP  RH WIND       PRES   REMARKS
ROSWELL        FAIR      35  26  69 CALM        N/A
ARTESIA        FAIR      46  30  53 W12G18    29.92R
CARLSBAD       FAIR      52  31  44 W25G31    29.90S
HOBBS          FAIR      39  27  60 SW5       29.94R


$$




USA.gov is the U.S. government's official web portal to all federal, state and local government web resources and services.